Starlink 4492

operational
NORAD ID: 53410 Int'l Des: 2022-097 Owner: SPXS Country: US Constellation: starlink
LEOCIRCULAR

About Starlink 4492

Description loading...

Live Position

Loading 3D Globe...

Upcoming Passes

Altitude History

Altitude vs Time

uPlot chart will show altitude changes over time

Two-Line Element Set

1 53410U 22097Y 26062.61553671 .00000887 00000-0 73801-4 0 9999
2 53410 53.2163 141.3890 0001237 90.2989 269.8145 15.08843252197731
Epoch: Mar 3, 2026 • Age: 35 hours

Current Status

Altitude 548.2 km
Velocity 7.59 km/s
Sub-Earth Point -27.10°S, 15.85°E
Launch Date Aug 10, 2022
Age 3.5 years
Type internet

Technical Details

Classification Payload
Mass 297.00 kg
Dry Mass 275.00 kg
Total Mass 297.00 kg
Length 0.20 m
Diameter 2.80 m
Span 9.00 m
Shape Box + pan
Manufacturer SPXS
Bus Type Starlink
Phase Status In Orbit
Owner/State SPXS/US

Large Constellations

Loading constellations...